Orbital Elements at Epoch 2459200.5 (2020-Dec-17.0) TDB
Reference: JPL 19 (heliocentric ecliptic J2000)
Element | Value | Uncertainty (1-sigma) | Units |
e | .1327111179062781 | 3.5977e-08 | |
a | 2.601663568373379 | 9.7717e-09 | au |
q | 2.256393887798511 | 9.3921e-08 | au |
i | 2.497187432726965 | 3.7361e-06 | deg |
node | 27.34307565363851 | 9.8049e-05 | deg |
peri | 25.33841416097549 | 9.9468e-05 | deg |
M | 15.14391987467078 | 1.5733e-05 | deg |
tp | 2459136.022092857542 (2020-Oct-13.52209286) | 6.7005e-05 | TDB |
period | 1532.763430035615 4.20 | 8.6355e-06 2.364e-08 | d yr |
n | .2348699042171401 | 1.3232e-09 | deg/d |
Q | 2.946933248948246 | 1.1069e-08 | au |
|
| | Orbit Determination Parameters
Additional Information
|